Weather History for Bishop, CA

Change the Weather History Date:

Tuesday, June 18, 2013

  Actual Average Record
Temperature  
Mean Temperature 72 °F 72 °F  
Max Temperature 95 °F 93 °F 107 °F (1985)
Min Temperature 49 °F 52 °F 39 °F (2005)
Degree Days  
Heating Degree Days 0 0  
Month to date heating degree days 0 17  
Since 1 June heating degree days 0 17  
Since 1 July heating degree days 3851 4175  
Cooling Degree Days 7 7  
Month to date cooling degree days 187 104  
Year to date cooling degree days 273 172  
Since 1 June cooling degree days 187 104  
Growing Degree Days 22 (Base 50)    
Moisture  
Dew Point 18 °F    
Average Humidity 18    
Maximum Humidity 32    
Minimum Humidity 3    
Precipitation  
Precipitation 0.00 in 0.01 in 0.06 in (1977)
Month to date precipitation T 0.13  
Year to date precipitation 0.47 3.01  
Snow  
Snow 0.00 in 0.00 in - ()
Month to date snowfall 0.0 0.0  
Since 1 June snowfall 0.0 0.0  
Since 1 July snowfall 2.8 6.8  
Snow Depth 0.00 in    
Sea Level Pressure  
Sea Level Pressure 29.69 in    
Wind  
Wind Speed 9 mph (WNW)    
Max Wind Speed 28 mph    
Max Gust Speed 37 mph    
Visibility 10 miles    
Events      
T = Trace of Precipitation, MM = Missing Value Source: NWS Daily Summary

Daily Weather History Graph

Daily Weather History Graph

Search for Another Location

Airport:

Trip Planner

Search our weather history database for the weather conditions in past years. The results will help you decide how hot, cold, wet, or windy it might be!

Date:

Astronomy

Jun. 18, 2013 Rise Set
Actual Time 5:32 AM PDT 8:16 PM PDT
Civil Twilight 5:01 AM PDT 8:47 PM PDT
Nautical Twilight 4:22 AM PDT 9:26 PM PDT
Astronomical Twilight 3:38 AM PDT 10:10 PM PDT
Moon 3:11 PM PDT (6/18) 1:38 AM PDT (6/18)
Length of Visible Light 15h 46m
Length of Day
14h 44m
Waxing Gibbous, 72% of the Moon is Illuminated
Jun 18
Waxing Gibbous
Jun 23
Full
Jun 29
Last Quarter
Jul 8
New
Jul 15
First Quarter

Hourly Weather History & Observations

Time (PDT) Temp. Dew Point Humidity Pressure Visibility Wind Dir Wind Speed Gust Speed Precip Events Conditions
12:56 AM 66.9 °F 21.9 °F 18% 29.77 in 10.0 mi NW 5.8 mph - N/A   Clear
1:56 AM 63.0 °F 24.1 °F 23% 29.78 in 10.0 mi NNW 8.1 mph - N/A   Clear
2:56 AM 59.0 °F 28.0 °F 31% 29.78 in 10.0 mi West 8.1 mph - N/A   Clear
3:56 AM 60.1 °F 24.1 °F 25% 29.78 in 10.0 mi WNW 6.9 mph - N/A   Clear
4:56 AM 55.0 °F 23.0 °F 29% 29.79 in 10.0 mi Variable 3.5 mph - N/A   Clear
5:56 AM 51.1 °F 23.0 °F 33% 29.80 in 10.0 mi Calm Calm - N/A   Clear
6:56 AM 61.0 °F 25.0 °F 25% 29.79 in 10.0 mi NNW 4.6 mph - N/A   Clear
7:56 AM 68.0 °F 19.0 °F 15% 29.78 in 10.0 mi West 3.5 mph - N/A   Clear
8:56 AM 75.0 °F 18.0 °F 12% 29.76 in 10.0 mi West 3.5 mph - N/A   Clear
9:56 AM 79.0 °F 15.1 °F 9% 29.74 in 10.0 mi Calm Calm - N/A   Clear
10:56 AM 84.0 °F 12.0 °F 7% 29.72 in 10.0 mi ENE 3.5 mph - N/A   Clear
11:56 AM 87.1 °F 8.1 °F 5% 29.68 in 10.0 mi SE 8.1 mph - N/A   Clear
12:56 PM 90.0 °F 7.0 °F 4% 29.65 in 10.0 mi SSE 11.5 mph 17.3 mph N/A   Clear
1:56 PM 91.9 °F 10.0 °F 5% 29.62 in 10.0 mi SW 10.4 mph 16.1 mph N/A   Clear
2:56 PM 93.0 °F 1.9 °F 4% 29.60 in 10.0 mi WSW 10.4 mph 25.3 mph N/A   Clear
3:56 PM 93.0 °F 10.0 °F 5% 29.58 in 10.0 mi West 15.0 mph 28.8 mph N/A   Clear
4:56 PM 91.0 °F 17.1 °F 7% 29.58 in 10.0 mi WSW 20.7 mph 29.9 mph N/A   Clear
5:56 PM 89.1 °F 19.0 °F 8% 29.58 in 10.0 mi SW 16.1 mph 27.6 mph N/A   Clear
6:56 PM 84.9 °F 19.9 °F 9% 29.57 in 10.0 mi WSW 18.4 mph 25.3 mph N/A   Clear
7:56 PM 82.0 °F 21.9 °F 11% 29.58 in 10.0 mi WSW 17.3 mph 29.9 mph N/A   Clear
8:56 PM 77.0 °F 21.0 °F 12% 29.60 in 10.0 mi NNE 10.4 mph - N/A   Clear
9:56 PM 73.0 °F 19.9 °F 14% 29.64 in 10.0 mi NW 10.4 mph - N/A   Clear
10:56 PM 68.0 °F 21.9 °F 17% 29.65 in 10.0 mi NNE 12.7 mph 21.9 mph N/A   Clear
11:56 PM 66.9 °F 19.0 °F 16% 29.65 in 10.0 mi North 15.0 mph 26.5 mph N/A   Clear